Showing default

CALSPHERE 1, 900

Orbit data source: Space-Track

CALSPHERE 1, 900 is a payload satellite owned by NRL (US) in LEO that was launched on Tue, 06 Oct 1964 UTC via a THOR ABLESTAR launch vehicle from the Air Force Western Test Range (AFWTR). Payload-class satellites include a variety of spacecraft equipped with specific instruments for various scientific and technological missions. These include communications satellites like Starlink; space stations such as the ISS; scientific satellites like the Hubble; Earth observation satellites from companies like Planet Labs, Umbra, and HawkEye 360; GPS; miniature CubeSats for education and research; and military/defense satellites.

Loading next visibility...
Identifier
900, 1964-063C
Orbit
LEO
Country
Flag of USUS
Related business
Manufacturer
NRL
Mission
Operational spacecraft
Bus & Motor
NRL 14", Unknown motor
Mass
1 kg wet, 1 kg dry
Launch date (UTC)
1964-10-06 (61 years ago)
Launch vehicle
THOR ABLESTAR
Launch site
Air Force Western Test Range (AFWTR)
Object type
Payload
Rocket body
Debris
Shape & HBR
Unknown
Radar Cross Section
Small (<0.1 m²)

Expand to show TLE details & history
Last TLE update: 21 hours ago

TLE from 21 hours ago
0 CALSPHERE 1
1   900U 64063C   25312.77960910  .00001083  00000-0  10995-2 0  9998
2   900  90.2205  66.6665 0024755 236.0986 285.8819 13.76295237 41103
Epoch: 2025-11-08T18:42Z
TLE epoch observation values (Epoch: 2025-11-08T18:42:38.226Z)
Latitude
18.28433°
Longitude
-82.12462°
Altitude
974.571 km
Speed
7.368 km/s
True Right ascension
16h 26m 57s
True Declination
18° 11' 07"
Sunlit
Object was in daylight at epoch
Visualization orbit readout
Latitude
Unknown
Longitude
Unknown
Altitude
Unknown
Speed
Unknown
Apparent Right ascension
Unknown
Apparent Declination
Unknown
Sunlit
N/A
Visualization observer readout
Local Sidereal Time
11:31:57
Azimuth
Unknown
Elevation
Unknown
Doppler factor
Unknown
Orbital elements
Apogee altitude
992.269 km
Perigee altitude
955.868 km
Semi-major axis
7,352.205 km
Eccentricity
0.00248
Inclination
90.2205°
RAAN
66.6665°
Arg. of periapsis
236.0986°
True anomaly
285.60883°
Mean anomaly
285.8819°
Eccentric anomaly
285.74539°
Mean motion
3.44284 °/min
Orbital period
104.56 mins
BSTAR
0.0010995
Loading maneuver chart data...
Computing Atmospheric mass density...
Loading historical data...
Loading historical data...
Loading historical data...
Loading historical data...
Loading historical data...
Loading historical data...
Loading historical data...

Documentation

Showing up to 5 results
|